Regional Weather Roundup
Issued by NWS Jackson, KY

Home | Current Version | Previous Version | Text Only | Print | Product List | Glossary On
Versions: 1 2 3 4 5 6 7 8 9 10 11 12 13 14 15 16 17 18 19 20 21 22 23 24 25 26 27
000
ASUS43 KJKL 200210
RWRJKL

EAST KENTUCKY HOURLY WEATHER ROUNDUP
NATIONAL WEATHER SERVICE JACKSON KY
1000 PM EDT TUE SEP 19 2017

NOTE: "FAIR" INDICATES FEW OR NO CLOUDS BELOW 12,000 FEET WITH
NO SIGNIFICANT WEATHER AND/OR OBSTRUCTIONS TO VISIBILITY.

* THESE REPORTS ARE NOT UNDER NWS QUALITY CONTROL AND MAY NOT
  REPORT WEATHER SUCH AS PRECIPITATION AND FOG.

KYZ079-080-083-085-087-088-110-112-115-119-120-200300
...EASTERN KENTUCKY...

CITY           SKY/WX    TMP DP  RH WIND       PRES   REMARKS
JACKSON        MOCLDY    71  68  90 SE3       30.00R
LONDON         PTCLDY    71  67  87 CALM      30.00R
SOMERSET*      CLEAR     68  68 100 CALM      30.00R
MONTICELLO*    CLEAR     64  64 100 CALM      30.00R
WILLIAMSBURG*  PTCLDY    68  68 100 CALM      30.00R
MIDDLESBORO*   MOCLDY    68  65  91 W3        30.01R
HARLAN APT*    PTCLDY    68  64  88 CALM      30.03R
PIKE CO APT*     N/A     69  69  99 SE5       30.01R
BIG SANDY APT* MOCLDY    68  68 100 CALM      30.00R
MOREHEAD APT*  LGT RAIN  70  68  94 CALM      30.00R VSB 3/4
$$

KYZ035-036-041-042-044-050-067-078-099-200300
...CENTRAL KENTUCKY...

CITY           SKY/WX    TMP DP  RH WIND       PRES   REMARKS
MT STERLING*   CLOUDY    68  68 100 CALM      30.00S
FLEMING/MASON* CLOUDY    69  66  88 CALM      30.00R
DANVILLE*      MOCLDY    70  68  94 CALM      30.00R
LEXINGTON      MOCLDY    71  66  84 E3        29.98R
FRANKFORT      CLEAR     67  64  90 CALM      29.96R
LOUISVILLE     CLEAR     72  69  90 SE3       29.95R
LEBANON*         N/A     70  68  94 SE3       29.98R
GLASGOW*       PTCLDY    70  69  98 CALM      29.96S
BOWLING GREEN  CLEAR     72  70  93 CALM      29.95R
$$

KYZ091>093-OHZ055-061-077-WVZ005-015-034-035-042-200300
...SOUTHERN OHIO/WEST VIRGINIA...

CITY           SKY/WX    TMP DP  RH WIND       PRES   REMARKS
COVINGTON      CLEAR     67  67 100 S3        29.96R
COLUMBUS       CLOUDY    73  67  81 SE5       29.96S
DAYTON         MOCLDY    68  66  93 S5        29.97R
WILMINGTON     CLEAR     67  67 100 SE5       29.97R
HUNTINGTON     CLOUDY    70  67  90 CALM      29.97R
CHARLESTON     PTCLDY    70  66  87 CALM      29.98R
PINEVILLE*     CLEAR     64  62  93 MISG      30.08R
BECKLEY        PTCLDY    65  61  87 CALM      30.06R
BLUEFIELD      MOCLDY    66  58  75 CALM      30.08R
LOGAN CO APT*    N/A     70  64  83 CALM      30.01S
$$

VAZ002-007-008-TNZ017-027-036-066-071-200300
...SOUTHWEST VIRGINIA/EAST TENNESSEE...

CITY           SKY/WX    TMP DP  RH WIND       PRES   REMARKS
WISE*          PTCLDY    68  59  73 CALM      30.09R
JONESVILLE*      N/A     66  64  94 CALM      30.04R
ABINGDON*      PTCLDY    67  63  87 CALM      30.05R
BRISTOL        PTCLDY    68  63  84 CALM      30.02R
MORRISTOWN*    MOCLDY    70  64  83 SW6       30.00S
SEVIERVILLE*   CLEAR     68  61  77 CALM      30.00S
KNOXVILLE      MOCLDY    66  64  93 S3        29.99S
LAFOLLETTE*    CLOUDY    66  66 100 CALM      30.03R FOG
OAK RIDGE      CLOUDY    67  64  90 CALM      30.02R
CROSSVILLE     CLEAR     63  63 100 CALM      30.04R
NASHVILLE      MOCLDY    70  68  93 CALM      29.96S
$$

...KEY TO REMARKS...
VSB - VISIBILITY IN MILES
WCI - WIND CHILL INDEX
HX  - HEAT INDEX

$$




USA.gov is the U.S. government's official web portal to all federal, state and local government web resources and services.